Terminal Aerodrome Forecast
Issued by NWS

Home | Current Version | Previous Version | Text Only | Print | Product List | Glossary On
Versions: 1 2 3 4 5 6 7 8 9 10 11 12 13 14 15 16 17 18 19
000
FTUS41 KPHI 181100
TAFPNE
TAF
KPNE 181140Z 1812/1912 34003KT P6SM BKN080
     FM181700 31007KT P6SM SCT060
     FM190100 36004KT P6SM BKN090
     FM190500 03006KT P6SM FEW090=

USA.gov is the U.S. government's official web portal to all federal, state and local government web resources and services.